Regional Weather Roundup
Issued by NWS

Home | Current Version | Previous Version | Graphics & Text | Print | Product List | Glossary On
Versions: 1 2 3 4 5 6 7 8 9 10 11 12 13 14 15 16 17 18 19 20 21 22 23 24 25 26 27 28 29 30 31 32 33 34 35 36 37 38 39 40 41 42 43 44 45 46 47 48 49 50
000
ASUS45 KTFX 240904
RWRMT
MONTANA HOURLY WEATHER ROUNDUP
NATIONAL WEATHER SERVICE GREAT FALLS MT
304 AM MDT THU APR 24 2014

NOTE: "FAIR" INDICATES FEW OR NO CLOUDS BELOW 12000 FEET WITH NO
SIGNIFICANT WEATHER AND/OR OBSTRUCTIONS TO VISIBILITY.

* THESE STATIONS ARE NOT UNDER NWS QUALITY CONTROL. THEY DO NOT
   REPORT WEATHER SUCH AS PRECIPITATION OR FOG.

MTZ001>007-043-241000-
WEST OF THE DIVIDE
CITY           SKY/WX    TMP DP  RH WIND       PRES   REMARKS
KALISPELL      CLOUDY    37  30  76 S5        29.84F WCI  33
MISSOULA       CLOUDY    37  36  96 SE3       29.90F
BUTTE          CLOUDY    36  21  54 VRB3      29.86F
MULLAN PASS    LGT SNOW  28  27  96 SE3       29.78F VSB 1/2
* ESSEX        N/A       34  27  76 NW1        N/A
* LINCOLN      N/A       32  31  96 S5G11      N/A   WCI  27
* POLSON       N/A       35  31  85 S1         N/A
* RONAN APT    CLOUDY    39  32  76 SE8        N/A   WCI  33
* SEELEY LAKE  N/A       32  31  96 N/A        N/A
* THOMP F APT  CLOUDY    27  20  75 NE5G10     N/A   WCI  21
$$

MTZ008-052>055-241000-
SOUTHWEST MONTANA
CITY           SKY/WX    TMP DP  RH WIND       PRES   REMARKS
BOZEMAN        CLOUDY    45  19  35 SW14      29.87S
DILLON         CLOUDY    36  25  64 SW13      29.89S WCI  27
W YELLOWSTONE  N/A       28  24  85 SW4G10     N/A
* THREE FORKS  MOCLDY    45  27  49 SW11G23    N/A
* BOULDER HILL N/A       34  23  64 S8         N/A   WCI  27
* MONIDA PASS  N/A       24  18  78 SE12       N/A   WCI  13
* RAYNOLDS PAS N/A       24   7  48 SE18       N/A   WCI  10
* WHITEHALL    N/A       40  22  49 SW11G20    N/A   WCI  33
* WISE RIVER   N/A       36  22  57 W12G18     N/A   WCI  28
$$

MTZ009>010-012-014-046-048-049-054-241000-
EAST SLOPES AND CENTRAL MONTANA
CITY           SKY/WX    TMP DP  RH WIND       PRES   REMARKS
CUT BANK       PTCLDY    34  21  59 W18       29.73S WCI  23
GREAT FALLS    MOCLDY    36  30  79 SW14      29.78R WCI  27
HELENA         CLOUDY    37  36  96 E5        29.86S WCI  33
MALMSTROM AFB  MOCLDY    37  28  70 SW17      29.75R WCI  27
* CONRAD       PTCLDY    30  23  75 N/A        N/A
* DEARBORN     N/A       41  29  62 S9G26      N/A
* EAST GLACIER N/A       34  21  59 W22G27     N/A   WCI  22
* MONARCH      N/A       34  16  48 SW17G26    N/A   WCI  23
* PENDROY      N/A       37  20  50 W24G34     N/A   WCI  26
* ROGERS PASS  N/A       30  26  85 SE11G18    N/A   WCI  21
* SAINT MARY   N/A       34  21  59 S8G21      N/A   WCI  27
* SWEET GRASS  N/A       34  21  59 S16G24     N/A   WCI  24
$$

MTZ011-013-016-021-035-040-045-047-050-051-241000-
NORTH CENTRAL MONTANA
CITY           SKY/WX    TMP DP  RH WIND       PRES   REMARKS
HAVRE          CLEAR     36  27  70 SW16      29.72R WCI  26
LEWISTOWN      MOCLDY    34  27  76 W6        29.78R WCI  29
* CHESTER      N/A       28  22  78 S1         N/A
* DENTON       N/A       32  25  75 SW12       N/A   WCI  23
* GEYSER       N/A       38  22  53 W18G23     N/A   WCI  28
* JUDITH GAP   N/A       34  27  76 SW18       N/A   WCI  23
* LOMA         N/A       37  28  70 SW6        N/A   WCI  32
$$

MTZ017>020-022>027-061-062-241000-
NORTHEAST MONTANA
CITY           SKY/WX    TMP DP  RH WIND       PRES   REMARKS
GLASGOW        CLEAR     36  27  70 W8        29.69S WCI  30
GLENDIVE       PTCLDY    37  21  52 W10       29.75S WCI  30
JORDAN         CLEAR     34  25  70 W10       29.75R WCI  26
SIDNEY         CLEAR     45  25  45 W12       29.72R
WOLF POINT     PTCLDY    36  25  64 SW10      29.71R WCI  29
* BEAVER HILL  N/A       36  22  57 S14        N/A   WCI  27
* CIRCLE       N/A       39  26  60 SW3G9      N/A
* LINDSAY DVD  N/A       40  23  51 SW17G22    N/A   WCI  31
* NAVAJO       N/A       37  26  64 W17        N/A   WCI  27
* SACO         N/A       37  25  62 SW9G14     N/A   WCI  30
$$

MTZ028>042-056>058-241000-
SOUTHCENTRAL AND SOUTHEAST MONTANA
CITY           SKY/WX    TMP DP  RH WIND       PRES   REMARKS
BAKER          CLEAR     36  23  59 SW13      29.78S WCI  27
BILLINGS       CLOUDY    43  25  49 W12       29.82R
LIVINGSTON     CLOUDY    45  18  34 SW24G31   29.83R
MILES CITY     CLOUDY    46  25  44 SW13      29.78S
* LAUREL APT   MOCLDY    37  19  48 N/A        N/A
* ROUNDUP APT  MOCLDY    43  25  49 W15G22     N/A
* HYSHAM       N/A       44  23  43 W5G18      N/A
* LAME DEER    N/A       40  21  47 SW8        N/A   WCI  35
* REED POINT   N/A       36  28  73 SE3G8      N/A
* ROSCOE HILL  N/A       40  12  32 N3         N/A
$$

REGIONAL REPORTS...DAKOTAS
CITY           SKY/WX    TMP DP  RH WIND       PRES   REMARKS
WILLISTON      CLEAR     39  27  62 SW9       29.68R WCI  33
DICKINSON      CLEAR     36  23  59 W12       29.72R WCI  28
CROSBY         FAIR      34  34 100 SW8       29.63S WCI  27
TIOGA          CLEAR     34  32  92 W8        29.68R WCI  27
WATFORD CITY   CLEAR     32  25  75 SW8       29.68S WCI  25
BISMARCK       PTCLDY    36 N/A N/A W6        29.73F WCI  31
GRAND FORKS    CLOUDY    39  37  93 SE13      29.79S WCI  31
FARGO          CLOUDY    43  37  79 SE10      29.77F
BUFFALO SD     CLEAR     36  25  64 W10       29.75S WCI  29
RAPID CITY     PTCLDY    34  23  64 NW10      29.85R WCI  26
$$

REGIONAL REPORTS...WYOMING/IDAHO/WASHINGTON
CITY           SKY/WX    TMP DP  RH WIND       PRES   REMARKS
GILLETTE       CLEAR     34  25  70 SW9       29.86F WCI  27
SHERIDAN       CLEAR     41  18  39 W14       29.83F
CODY           PTCLDY    43  18  37 W23G31    29.86F
SALMON         CLOUDY    45  23  42 S3        29.89F
MULLAN PASS    LGT SNOW  28  27  96 SE3       29.78S VSB 1/2
SPOKANE        LGT RAIN  41  39  93 SE7       29.79F

$$




USA.gov is the U.S. government's official web portal to all federal, state and local government web resources and services.